Startpagina
METAR-TAF:

METAR-TAF

Vliegvelden :

Georgetown, Ascension

breedte: 07-58S, lengte: 014-24W, hoogte: 86 m

METAR: ontbreekt

Tijdstip: 21:15 (21:15 UTC)

Verwachting

Dit bericht is 39 uur en het 15 minuten geleden gemaakt, om 06:00 UTC
Verwachting geldig van 20 om 06 UTC tot 20 om 24 UTC
Wind 13 kt uit het zuidoosten
Zicht 10 km of meer
Weinig wolken op 2000 ft
Kans 40% :
Tijdelijke
van 20 om 06 UTC tot 20 om 15 UTC
Verspreide wolken op 2000 ft

TAF: FHAW 200600Z 2006/2024 13013KT 9999 FEW020 PROB40 TEMPO 2006/2015 SCT020

Waarnemingen en weersverwachtingen van meer dan 4000 vliegvelden (METAR en TAF).

De beschikbare stations zijn de gele en rode punten op de kaart.

Ga met uw muis naar het station om de naam te zien.

Klik dan om waarnemingen en weersverwachtingen te zien.

kaart wijzigen: klik op de groene knoppen met een zwart kruis om in te zoomen, op de groene knop met een streepje om uit te zoomen of op de groene pijlen voor aangrenzende kaarten.


METAR-TAF: